THY6GU LTFM-LGSK

Flight info

Callsign THY6GU
Flight time 0h 55m
Altitude 36000
Route IVGUS1E/36 IVGUS UY226 BIG DCT KOROS UW58 ETRUD DCT ETEKA
Aircraft B738/M-SDE2E3FGHIRWXY/LB1

Departure

Time 2026-04-18 10:57
Airport İstanbul Airport (LTFM)

Arrival

Time 2026-04-18 11:53
Airport Skiathos Island National Airport (LGSK)
Time Latitude Longitude Altitude Speed Heading
2026-04-18 10:36 41.26343 28.74913 311 ft 0 kts 287°
2026-04-18 10:38 41.26345 28.74909 312 ft 0 kts 287°
2026-04-18 10:49 41.26340 28.74928 310 ft 3 kts 284°
2026-04-18 10:49 41.26336 28.74954 311 ft 3 kts 276°
2026-04-18 10:49 41.26335 28.74981 312 ft 3 kts 264°
2026-04-18 10:49 41.26339 28.75006 311 ft 3 kts 242°
2026-04-18 10:50 41.26345 28.75019 310 ft 3 kts 216°
2026-04-18 10:50 41.26353 28.75026 312 ft 0 kts 197°
2026-04-18 10:52 41.26352 28.75026 312 ft 0 kts 197°
2026-04-18 10:53 41.26343 28.75022 312 ft 3 kts 197°
2026-04-18 10:53 41.26312 28.75009 312 ft 7 kts 197°
2026-04-18 10:53 41.26255 28.75012 312 ft 10 kts 142°
2026-04-18 10:53 41.26240 28.75107 312 ft 12 kts 89°
2026-04-18 10:54 41.26241 28.75216 313 ft 11 kts 89°
2026-04-18 10:54 41.26243 28.75307 313 ft 9 kts 88°
2026-04-18 10:54 41.26244 28.75379 313 ft 7 kts 90°
2026-04-18 10:54 41.26244 28.75446 313 ft 7 kts 89°
2026-04-18 10:55 41.26244 28.75511 313 ft 7 kts 90°
2026-04-18 10:55 41.26245 28.75580 313 ft 8 kts 88°
2026-04-18 10:55 41.26257 28.75656 313 ft 9 kts 48°
2026-04-18 10:55 41.26304 28.75667 314 ft 0 kts 360°
2026-04-18 10:56 41.26310 28.75667 314 ft 4 kts
2026-04-18 10:56 41.26499 28.75665 309 ft 62 kts 360°
2026-04-18 10:57 41.27161 28.75650 299 ft 125 kts 358°
2026-04-18 10:57 41.28111 28.75624 746 ft 139 kts
2026-04-18 10:57 41.29082 28.75618 1604 ft 137 kts
2026-04-18 10:57 41.29975 28.76137 2285 ft 154 kts 43°
2026-04-18 10:58 41.30809 28.77244 2612 ft 185 kts 31°
2026-04-18 10:58 41.32050 28.78021 2889 ft 206 kts 27°
2026-04-18 10:58 41.33380 28.78937 3139 ft 226 kts 29°
2026-04-18 10:58 41.34795 28.79956 3704 ft 235 kts 29°
2026-04-18 10:59 41.36234 28.81007 4484 ft 237 kts 28°
2026-04-18 10:59 41.37536 28.82372 5214 ft 245 kts 51°
2026-04-18 10:59 41.38261 28.84451 5990 ft 254 kts 71°
2026-04-18 10:59 41.38465 28.86826 6740 ft 263 kts 83°
2026-04-18 11:00 41.38386 28.89286 7453 ft 274 kts 99°
2026-04-18 11:00 41.37447 28.91542 8217 ft 289 kts 129°
2026-04-18 11:00 41.35791 28.93101 9047 ft 298 kts 155°
2026-04-18 11:00 41.33754 28.93683 9891 ft 304 kts 180°
2026-04-18 11:01 41.31665 28.93129 10526 ft 317 kts 204°
2026-04-18 11:01 41.29730 28.91499 10749 ft 343 kts 223°
2026-04-18 11:01 41.28093 28.89103 11203 ft 355 kts 236°
2026-04-18 11:02 41.25308 28.83667 13008 ft 354 kts 240°
2026-04-18 11:02 41.23946 28.80916 13842 ft 358 kts 239°
2026-04-18 11:02 41.22550 28.78152 14601 ft 362 kts 239°
2026-04-18 11:02 41.21123 28.75382 15375 ft 366 kts 238°
2026-04-18 11:03 41.19666 28.72600 16235 ft 367 kts 238°
2026-04-18 11:03 41.18200 28.69835 17209 ft 367 kts 237°
2026-04-18 11:03 41.16722 28.67069 18215 ft 368 kts 237°
2026-04-18 11:03 41.15234 28.64296 18963 ft 369 kts 237°
2026-04-18 11:04 41.13760 28.61559 19932 ft 363 kts 237°
2026-04-18 11:04 41.12279 28.58809 20527 ft 369 kts 236°
2026-04-18 11:04 41.10771 28.56012 21044 ft 376 kts 236°
2026-04-18 11:04 41.09244 28.53184 21742 ft 377 kts 236°
2026-04-18 11:05 41.07715 28.50358 22431 ft 378 kts 236°
2026-04-18 11:05 41.06174 28.47511 23028 ft 382 kts 235°
2026-04-18 11:05 41.04614 28.44630 23504 ft 389 kts 235°
2026-04-18 11:05 41.03033 28.41714 24110 ft 388 kts 235°
2026-04-18 11:06 41.01454 28.38805 24663 ft 390 kts 235°
2026-04-18 11:06 40.99864 28.35878 25063 ft 395 kts 235°
2026-04-18 11:06 40.98249 28.32906 25462 ft 400 kts 235°
2026-04-18 11:06 40.96640 28.29950 25908 ft 403 kts 235°
2026-04-18 11:07 40.94992 28.26925 26310 ft 407 kts 235°
2026-04-18 11:07 40.93332 28.23881 26768 ft 409 kts 234°
2026-04-18 11:07 40.91662 28.20821 27245 ft 411 kts 234°
2026-04-18 11:07 40.89983 28.17748 27701 ft 413 kts 234°
2026-04-18 11:08 40.88295 28.14662 28140 ft 416 kts 234°
2026-04-18 11:08 40.86598 28.11562 28569 ft 418 kts 234°
2026-04-18 11:08 40.84888 28.08442 28977 ft 420 kts 234°
2026-04-18 11:08 40.83168 28.05306 29367 ft 423 kts 234°
2026-04-18 11:09 40.81439 28.02157 29812 ft 424 kts 234°
2026-04-18 11:09 40.79707 27.99007 30205 ft 425 kts 234°
2026-04-18 11:09 40.77965 27.95840 30536 ft 426 kts 234°
2026-04-18 11:09 40.76225 27.92680 30945 ft 426 kts 234°
2026-04-18 11:10 40.74489 27.89531 31425 ft 423 kts 234°
2026-04-18 11:10 40.72764 27.86405 31899 ft 421 kts 234°
2026-04-18 11:10 40.71042 27.83289 32289 ft 420 kts 235°
2026-04-18 11:10 40.69317 27.80169 32572 ft 422 kts 235°
2026-04-18 11:11 40.67583 27.77036 32919 ft 423 kts 235°
2026-04-18 11:11 40.65856 27.73917 33384 ft 420 kts 235°
2026-04-18 11:11 40.64138 27.70820 33862 ft 418 kts 235°
2026-04-18 11:11 40.62426 27.67733 34187 ft 417 kts 235°
2026-04-18 11:12 40.60710 27.64644 34423 ft 419 kts 235°
2026-04-18 11:12 40.58981 27.61548 34653 ft 421 kts 233°
2026-04-18 11:12 40.57016 27.58683 34929 ft 423 kts 225°
2026-04-18 11:12 40.54749 27.56189 35154 ft 427 kts 218°
2026-04-18 11:13 40.52207 27.54133 35381 ft 430 kts 212°
2026-04-18 11:13 40.49592 27.52215 35665 ft 431 kts 212°
2026-04-18 11:13 40.46970 27.50307 35920 ft 431 kts 212°
2026-04-18 11:13 40.44337 27.48377 35926 ft 436 kts 212°
2026-04-18 11:14 40.39057 27.44459 35936 ft 434 kts 212°
2026-04-18 11:14 40.33855 27.40582 35937 ft 427 kts 212°
2026-04-18 11:15 40.29014 27.36155 35952 ft 423 kts 226°
2026-04-18 11:15 40.25368 27.30195 35941 ft 419 kts 240°
2026-04-18 11:16 40.22371 27.23705 35947 ft 420 kts 240°
2026-04-18 11:16 40.19356 27.17154 35951 ft 421 kts 240°
2026-04-18 11:17 40.16307 27.10600 35947 ft 422 kts 240°
2026-04-18 11:17 40.13235 27.04043 35927 ft 423 kts 240°
2026-04-18 11:18 40.10154 26.97492 35937 ft 423 kts 240°
2026-04-18 11:18 40.07068 26.90945 35936 ft 424 kts 240°
2026-04-18 11:19 40.03975 26.84397 35946 ft 424 kts 240°
2026-04-18 11:19 40.00876 26.77850 35928 ft 423 kts 240°
2026-04-18 11:20 39.97788 26.71341 35918 ft 421 kts 240°
2026-04-18 11:20 39.94706 26.64856 35922 ft 420 kts 240°
2026-04-18 11:21 39.91633 26.58403 35912 ft 418 kts 240°
2026-04-18 11:21 39.88567 26.51977 35926 ft 417 kts 239°
2026-04-18 11:22 39.85505 26.45573 35908 ft 416 kts 240°
2026-04-18 11:22 39.82441 26.39179 35922 ft 416 kts 239°
2026-04-18 11:23 39.79370 26.32784 35920 ft 417 kts 239°
2026-04-18 11:23 39.76291 26.26384 35915 ft 418 kts 239°
2026-04-18 11:24 39.73201 26.19973 35923 ft 419 kts 239°
2026-04-18 11:24 39.70100 26.13555 35921 ft 420 kts 239°
2026-04-18 11:25 39.67059 26.07273 35926 ft 420 kts 239°
2026-04-18 11:25 39.63946 26.00854 35925 ft 421 kts 239°
2026-04-18 11:26 39.60821 25.94426 35935 ft 421 kts 239°
2026-04-18 11:26 39.57698 25.88012 35927 ft 421 kts 239°
2026-04-18 11:27 39.54572 25.81608 35927 ft 420 kts 239°
2026-04-18 11:27 39.53006 25.78402 35743 ft 424 kts 239°
2026-04-18 11:27 39.51422 25.75165 35215 ft 425 kts 239°
2026-04-18 11:28 39.49842 25.71938 34581 ft 424 kts 239°
2026-04-18 11:28 39.48263 25.68717 33958 ft 424 kts 239°
2026-04-18 11:28 39.46688 25.65508 33432 ft 419 kts 239°
2026-04-18 11:28 39.45132 25.62344 32941 ft 414 kts 239°
2026-04-18 11:29 39.43593 25.59216 32500 ft 408 kts 239°
2026-04-18 11:29 39.42107 25.56199 32262 ft 402 kts 239°
2026-04-18 11:29 39.40592 25.53122 32020 ft 410 kts 239°
2026-04-18 11:29 39.39046 25.49981 31783 ft 418 kts 239°
2026-04-18 11:30 39.37468 25.46781 31539 ft 424 kts 239°
2026-04-18 11:30 39.35885 25.43579 31276 ft 421 kts 239°
2026-04-18 11:30 39.34316 25.40408 30874 ft 415 kts 239°
2026-04-18 11:30 39.32773 25.37296 30662 ft 411 kts 239°
2026-04-18 11:31 39.31216 25.34152 30405 ft 420 kts 239°
2026-04-18 11:31 39.29631 25.30954 30185 ft 426 kts 239°
2026-04-18 11:31 39.28032 25.27734 29500 ft 425 kts 239°
2026-04-18 11:31 39.26452 25.24557 28946 ft 418 kts 239°
2026-04-18 11:32 39.24894 25.21429 28397 ft 411 kts 239°
2026-04-18 11:32 39.23356 25.18343 27831 ft 406 kts 239°
2026-04-18 11:32 39.21840 25.15302 27270 ft 401 kts 239°
2026-04-18 11:32 39.20339 25.12295 26726 ft 397 kts 240°
2026-04-18 11:33 39.18852 25.09315 26168 ft 393 kts 240°
2026-04-18 11:33 39.17379 25.06367 25614 ft 390 kts 240°
2026-04-18 11:33 39.15919 25.03447 25098 ft 386 kts 240°
2026-04-18 11:33 39.14470 25.00551 24590 ft 384 kts 240°
2026-04-18 11:34 39.13025 24.97669 24062 ft 381 kts 240°
2026-04-18 11:34 39.11623 24.94785 23540 ft 377 kts 245°
2026-04-18 11:34 39.10705 24.91660 22958 ft 371 kts 258°
2026-04-18 11:34 39.10294 24.88407 22336 ft 367 kts 268°
2026-04-18 11:35 39.10392 24.85167 21826 ft 363 kts 277°
2026-04-18 11:35 39.10674 24.81938 21287 ft 364 kts 277°
2026-04-18 11:35 39.10953 24.78667 20716 ft 370 kts 276°
2026-04-18 11:35 39.11185 24.75376 20174 ft 368 kts 276°
2026-04-18 11:36 39.11393 24.72107 19650 ft 365 kts 276°
2026-04-18 11:36 39.11594 24.68856 19189 ft 362 kts 276°
2026-04-18 11:36 39.11791 24.65665 18893 ft 358 kts 276°
2026-04-18 11:36 39.11997 24.62384 18388 ft 377 kts 276°
2026-04-18 11:37 39.12140 24.60133 17966 ft 383 kts 276°
2026-04-18 11:37 39.12354 24.56727 17314 ft 380 kts 276°
2026-04-18 11:37 39.12566 24.53354 16712 ft 376 kts 276°
2026-04-18 11:37 39.12775 24.50016 16135 ft 372 kts 277°
2026-04-18 11:38 39.12982 24.46702 15555 ft 369 kts 277°
2026-04-18 11:38 39.13029 24.45943 15422 ft 368 kts 277°
2026-04-18 11:38 39.13234 24.42669 14857 ft 366 kts 276°
2026-04-18 11:38 39.13437 24.39403 14292 ft 364 kts 277°
2026-04-18 11:39 39.13639 24.36141 13703 ft 367 kts 277°
2026-04-18 11:39 39.13842 24.32861 13072 ft 367 kts 277°
2026-04-18 11:39 39.14043 24.29585 12473 ft 367 kts 277°
2026-04-18 11:39 39.14243 24.26305 11882 ft 367 kts 277°
2026-04-18 11:40 39.14441 24.23046 11298 ft 364 kts 277°
2026-04-18 11:40 39.14635 24.19821 10900 ft 356 kts 277°
2026-04-18 11:40 39.14821 24.16702 10739 ft 342 kts 277°
2026-04-18 11:40 39.15000 24.13696 10577 ft 330 kts 277°
2026-04-18 11:41 39.15173 24.10797 10428 ft 319 kts 277°
2026-04-18 11:41 39.15341 24.07997 10297 ft 308 kts 278°
2026-04-18 11:41 39.15501 24.05284 10163 ft 299 kts 278°
2026-04-18 11:41 39.15655 24.02660 10038 ft 289 kts 278°
2026-04-18 11:42 39.15805 24.00108 9810 ft 285 kts 278°
2026-04-18 11:42 39.15960 23.97549 9396 ft 286 kts 278°
2026-04-18 11:42 39.16113 23.95000 9072 ft 284 kts 278°
2026-04-18 11:42 39.16264 23.92471 8757 ft 282 kts 278°
2026-04-18 11:43 39.16414 23.89959 8454 ft 280 kts 278°
2026-04-18 11:43 39.16562 23.87459 8151 ft 279 kts 278°
2026-04-18 11:43 39.16709 23.84972 7857 ft 278 kts 278°
2026-04-18 11:43 39.16856 23.82494 7551 ft 277 kts 278°
2026-04-18 11:44 39.16998 23.80064 7261 ft 275 kts 278°
2026-04-18 11:44 39.17141 23.77611 6969 ft 274 kts 278°
2026-04-18 11:44 39.17283 23.75169 6676 ft 273 kts 278°
2026-04-18 11:44 39.17425 23.72736 6375 ft 271 kts 277°
2026-04-18 11:45 39.17564 23.70327 6074 ft 270 kts 277°
2026-04-18 11:45 39.17703 23.67919 5772 ft 269 kts 277°
2026-04-18 11:45 39.17840 23.65524 5468 ft 267 kts 277°
2026-04-18 11:45 39.17840 23.63137 5170 ft 270 kts 261°
2026-04-18 11:46 39.16965 23.61008 4904 ft 276 kts 225°
2026-04-18 11:46 39.15348 23.59679 4641 ft 276 kts 207°
2026-04-18 11:46 39.13628 23.58603 4353 ft 274 kts 206°
2026-04-18 11:46 39.11920 23.57534 4091 ft 272 kts 206°
2026-04-18 11:47 39.10239 23.56461 3917 ft 266 kts 207°
2026-04-18 11:47 39.08608 23.55407 3801 ft 259 kts 206°
2026-04-18 11:47 39.07036 23.54385 3732 ft 246 kts 206°
2026-04-18 11:47 39.05552 23.53418 3630 ft 233 kts 206°
2026-04-18 11:48 39.04170 23.52518 3529 ft 220 kts 206°
2026-04-18 11:48 39.02858 23.51628 3420 ft 215 kts 213°
2026-04-18 11:48 39.01990 23.50131 3197 ft 209 kts 262°
2026-04-18 11:48 39.02128 23.48366 2995 ft 194 kts 301°
2026-04-18 11:49 39.02943 23.47104 2769 ft 178 kts 334°
2026-04-18 11:49 39.04045 23.46719 2612 ft 156 kts
2026-04-18 11:49 39.05080 23.46862 2423 ft 145 kts
2026-04-18 11:49 39.06083 23.47014 2256 ft 147 kts 12°
2026-04-18 11:50 39.07103 23.47264 2070 ft 150 kts 15°
2026-04-18 11:50 39.08080 23.47537 1849 ft 139 kts 15°
2026-04-18 11:50 39.08986 23.47794 1694 ft 133 kts 16°
2026-04-18 11:50 39.09871 23.48048 1506 ft 128 kts 16°
2026-04-18 11:51 39.10718 23.48290 1338 ft 126 kts 15°
2026-04-18 11:51 39.11591 23.48513 1177 ft 132 kts 12°
2026-04-18 11:51 39.12513 23.48663 976 ft 133 kts
2026-04-18 11:51 39.13430 23.48785 793 ft 134 kts
2026-04-18 11:52 39.14365 23.48980 603 ft 135 kts 12°
2026-04-18 11:52 39.15258 23.49285 418 ft 132 kts 17°
2026-04-18 11:52 39.16128 23.49668 237 ft 133 kts 18°
2026-04-18 11:52 39.17009 23.50054 46 ft 134 kts 18°
2026-04-18 11:53 39.17757 23.50389 37 ft 69 kts 20°
2026-04-18 11:53 39.18004 23.50497 44 ft 29 kts 18°
2026-04-18 11:53 39.18184 23.50575 49 ft 26 kts 19°
2026-04-18 11:53 39.18348 23.50648 54 ft 23 kts 19°
2026-04-18 11:54 39.18452 23.50696 60 ft 9 kts 20°
2026-04-18 11:54 39.18509 23.50693 54 ft 7 kts 12°
2026-04-18 11:54 39.18524 23.50736 59 ft 6 kts 113°
2026-04-18 11:54 39.18488 23.50739 57 ft 6 kts 216°
2026-04-18 11:55 39.18458 23.50702 58 ft 6 kts 212°
2026-04-18 11:55 39.18416 23.50681 59 ft 8 kts 199°
2026-04-18 11:55 39.18341 23.50648 55 ft 14 kts 199°
2026-04-18 11:55 39.18230 23.50598 55 ft 20 kts 199°
2026-04-18 11:56 39.18082 23.50533 48 ft 24 kts 199°
2026-04-18 11:56 39.17956 23.50469 43 ft 14 kts 220°
2026-04-18 11:56 39.17923 23.50377 41 ft 9 kts 251°
2026-04-18 11:56 39.17884 23.50324 39 ft 8 kts 198°
2026-04-18 11:57 39.17848 23.50308 38 ft 5 kts 199°
2026-04-18 11:57 39.17818 23.50295 38 ft 5 kts 199°
2026-04-18 11:57 39.17785 23.50279 38 ft 6 kts 210°
2026-04-18 11:57 39.17789 23.50233 38 ft 6 kts 294°
2026-04-18 11:58 39.17799 23.50200 38 ft 2 kts 289°
2026-04-18 11:58 39.17800 23.50193 38 ft 0 kts 288°